Location: Çayiçi
(36.4667°N, 30.2333°E)
Time: 02:09:33
(UTC+00:00)

USA 215 - Pass Details

Date: 09 February 2023
Orbit: 1102 x 1105 km, 123.0° (Epoch: 27 March)

Event Time Altitude Azimuth Distance (km) Brightness Sun altitude
Exits shadow 17:22:29 25° 136° (SE) 2,052 4.3 -22.4°
Maximum altitude 17:26:36 88° 223° (SW) 1,106 3.2 -23.2°
Drops below altitude 10° 17:33:10 10° 316° (NW) 2,962 6.1 -24.6°
Sets 17:35:39 0° 316° (NW) 3,923 6.8 -25.1°
